Tracking 25963 objects as of 13-Aug-2022
HD Live streaming from Space Station
objects crossing your sky now

STARLINK-4031

Track STARLINK-4031 now!
10-day predictions
STARLINK-4031 is classified as:


NORAD ID: 52679
Int'l Code: 2022-053Z
Perigee: 545.5 km
Apogee: 548.4 km
Inclination: 53.2 °
Period: 95.4 minutes
Semi major axis: 6917 km
RCS: Unknown
Launch date: May 18, 2022
Source: United States (US)
Launch site: AIR FORCE EASTERN TEST RANGE (AFETR)
aabbcc
Your satellite tracking list
Your tracking list is empty




NASA's NSSDC Master Catalog

Two Line Element Set (TLE):
1 52679U 22053Z   22224.83335648  .00014597  00000-0  93381-3 0  9996
2 52679  53.2128 241.8448 0002112  45.6185  38.2143 15.08820629 13767
Source of the keplerian elements: AFSPC